TimeCDT,TemperatureF,Dew PointF,Humidity,Sea Level PressureIn,VisibilityMPH,Wind Direction,Wind SpeedMPH,Gust SpeedMPH,PrecipitationIn,Events,Conditions,WindDirDegrees,DateUTC
12:52 AM,75.9,71.1,85,29.74,8.0,SSE,6.9,-,N/A,,Clear,160,2013-06-26 05:52:00
1:52 AM,73.9,70.0,87,29.74,8.0,SSE,6.9,-,N/A,,Clear,150,2013-06-26 06:52:00
2:52 AM,75.0,70.0,84,29.73,9.0,SSE,4.6,-,N/A,,Clear,160,2013-06-26 07:52:00
3:52 AM,75.0,70.0,84,29.73,9.0,South,3.5,-,N/A,,Clear,170,2013-06-26 08:52:00
4:52 AM,75.0,70.0,84,29.73,9.0,Calm,Calm,-,N/A,,Clear,0,2013-06-26 09:52:00
5:52 AM,73.0,69.1,87,29.75,8.0,SSE,3.5,-,N/A,,Clear,160,2013-06-26 10:52:00
6:52 AM,73.0,69.1,87,29.77,7.0,South,3.5,-,N/A,,Clear,170,2013-06-26 11:52:00
7:52 AM,78.1,69.1,74,29.79,8.0,South,8.1,-,N/A,,Clear,190,2013-06-26 12:52:00
8:52 AM,82.0,69.1,65,29.80,9.0,SSW,6.9,-,N/A,,Clear,200,2013-06-26 13:52:00
9:52 AM,87.1,68.0,53,29.81,9.0,Calm,Calm,-,N/A,,Clear,0,2013-06-26 14:52:00
10:52 AM,91.0,70.0,50,29.81,10.0,NNE,6.9,-,N/A,,Clear,30,2013-06-26 15:52:00
11:52 AM,95.0,70.0,44,29.81,10.0,NE,9.2,-,0.02,,Clear,40,2013-06-26 16:52:00
12:52 PM,97.0,70.0,41,29.82,10.0,ENE,8.1,-,N/A,,Clear,60,2013-06-26 17:52:00
1:52 PM,100.0,66.0,33,29.81,10.0,ENE,6.9,-,N/A,,Clear,60,2013-06-26 18:52:00
2:52 PM,102.9,64.0,28,29.80,10.0,Variable,5.8,-,N/A,,Clear,0,2013-06-26 19:52:00
3:52 PM,102.9,62.1,26,29.80,10.0,ESE,11.5,-,N/A,,Clear,120,2013-06-26 20:52:00
4:52 PM,102.9,64.9,29,29.79,10.0,East,9.2,-,N/A,,Clear,90,2013-06-26 21:52:00
5:52 PM,100.9,63.0,29,29.79,10.0,SSE,9.2,-,N/A,,Clear,160,2013-06-26 22:52:00
6:52 PM,99.0,62.1,30,29.79,10.0,SE,9.2,-,N/A,,Clear,140,2013-06-26 23:52:00
7:52 PM,93.9,63.0,36,29.80,10.0,SE,5.8,-,N/A,,Clear,130,2013-06-27 00:52:00
8:52 PM,91.0,66.9,45,29.81,10.0,SE,8.1,-,N/A,,Clear,130,2013-06-27 01:52:00
9:52 PM,87.1,68.0,53,29.83,10.0,SE,6.9,-,N/A,,Clear,130,2013-06-27 02:52:00
10:52 PM,84.0,69.1,61,29.85,10.0,SE,6.9,-,N/A,,Clear,140,2013-06-27 03:52:00
11:52 PM,81.0,71.1,72,29.85,10.0,SSE,5.8,-,N/A,,Clear,150,2013-06-27 04:52:00